FW1511 Weather Reports


Display with metric or nautical units.
time (UTC)temp
F
wind
direction
speed
MPH
gust
MPH
rain 1hr
in
rain 24hr
in
rain mn
in
humidity
%
barometer
mb
20260504223946 76 89 4.0 10.0 0.00 0.00 0.00 53 1009.7
20260504223003 76 12 3.0 8.0 0.00 0.00 0.00 53 1010.0
20260504221606 76 96 2.0 10.0 0.00 0.00 0.00 53 1010.1
20260504221246 76 92 3.0 10.0 0.00 0.00 0.00 55 1009.7
20260504220346 76 84 2.0 9.0 0.00 0.00 0.00 54 1009.9
20260504220001 76 101 2.0 7.0 0.00 0.00 0.00 53 1010.4
20260504215446 77 83 3.0 7.0 0.00 0.00 0.00 53 1010.1
20260504214605 76 79 3.0 10.0 0.00 0.00 0.00 56 1010.6
20260504214546 76 48 3.0 9.0 0.00 0.00 0.00 56 1010.1
20260504213646 76 85 2.0 8.0 0.00 0.00 0.00 58 1010.0
20260504213005 76 60 3.0 8.0 0.00 0.00 0.00 57 1010.4
20260504212746 76 72 3.0 8.0 0.00 0.00 0.00 59 1009.9
20260504211846 76 102 3.0 8.0 0.00 0.00 0.00 57 1009.9
20260504211606 75 133 3.0 8.0 0.00 0.00 0.00 57 1010.4
20260504210946 75 75 3.0 8.0 0.00 0.00 0.00 59 1010.2
20260504210046 75 98 3.0 8.0 0.00 0.00 0.00 60 1010.2
20260504210002 74 336 2.0 8.0 0.00 0.00 0.00 60 1010.5
20260504205146 74 74 3.0 10.0 0.00 0.00 0.00 61 1010.2
20260504204639 74 49 2.0 8.0 0.00 0.00 0.00 63 1010.7
20260504204247 75 74 2.0 7.0 0.00 0.00 0.00 61 1010.4
20260504203001 74 105 2.0 6.0 0.00 0.00 0.00 62 1010.8
20260504202446 74 96 2.0 8.0 0.00 0.00 0.00 63 1010.4
20260504201602 74 111 1.0 7.0 0.00 0.00 0.00 63 1010.9
20260504201546 74 88 2.0 6.0 0.00 0.00 0.00 63 1010.5
20260504200647 73 95 2.0 6.0 0.00 0.00 0.00 64 1010.6
20260504200006 72 82 2.0 7.0 0.00 0.00 0.00 66 1011.0
20260504195746 72 94 2.0 6.0 0.00 0.00 0.00 65 1010.6
20260504194847 72 81 2.0 5.0 0.00 0.00 0.00 66 1010.6
20260504194601 72 47 2.0 5.0 0.00 0.00 0.00 65 1011.0
20260504193947 72 93 3.0 8.0 0.00 0.00 0.00 66 1010.5
20260504193046 71 98 2.0 7.0 0.00 0.00 0.00 66 1010.7
20260504193004 71 94 2.0 7.0 0.00 0.00 0.00 67 1011.1
20260504192146 71 91 3.0 8.0 0.00 0.00 0.00 66 1010.8
20260504191602 70 105 2.0 8.0 0.00 0.00 0.00 70 1011.5
20260504191247 70 100 3.0 9.0 0.00 0.00 0.00 70 1011.0
20260504190346 70 89 2.0 6.0 0.00 0.00 0.00 69 1011.1
20260504190008 69 93 1.0 6.0 0.00 0.00 0.00 69 1011.5
20260504184606 68 61 2.0 6.0 0.00 0.00 0.00 72 1011.5
20260504184546 69 30 3.0 6.0 0.00 0.00 0.00 70 1011.1
20260504183647 67 78 3.0 7.0 0.00 0.00 0.00 74 1011.2
20260504183002 66 122 2.0 7.0 0.00 0.00 0.00 73 1011.5
20260504182746 67 80 1.0 7.0 0.00 0.00 0.00 72 1011.0
20260504181503 65 77 1.0 5.0 0.00 0.00 0.00 75 1011.5
20260504180946 65 99 1.0 6.0 0.00 0.00 0.00 78 1011.1
20260504180046 64 91 2.0 6.0 0.00 0.00 0.00 80 1011.2
20260504175146 63 91 2.0 6.0 0.00 0.00 0.00 80 1011.2
20260504174502 62 68 0.0 6.0 0.00 0.00 0.00 80 1011.5
20260504174246 63 69 2.0 6.0 0.00 0.00 0.00 79 1011.1
20260504173346 62 64 1.0 6.0 0.00 0.00 0.00 79 1011.1
20260504173102 62 1 1.0 4.0 0.00 0.00 0.00 80 1011.5
20260504172446 62 18 2.0 5.0 0.00 0.00 0.00 80 1011.1
20260504171547 62 344 2.0 8.0 0.00 0.00 0.00 81 1011.0
20260504171505 61 331 2.0 8.0 0.00 0.00 0.00 82 1011.5
20260504170647 61 356 2.0 6.0 0.00 0.00 0.00 82 1011.1
20260504170103 60 307 2.0 5.0 0.00 0.00 0.00 81 1011.4
20260504160346 58 12 2.0 7.0 0.00 0.00 0.00 85 1010.9
20260504150947 56 7 1.0 5.0 0.00 0.00 0.00 89 1010.3
20260504150106 55 357 1.0 6.0 0.00 0.00 0.00 90 1010.7
20260504140647 49 0 0.0 0.0 0.00 0.00 0.00 100 1009.7
20260504130347 45 0 0.0 0.0 0.00 0.00 0.00 96 1009.0
20260504120107 45 124 0.0 0.0 0.00 0.00 0.00 94 1009.1
20260504110647 47 0 0.0 0.0 0.00 0.00 0.00 94 1008.3
20260504110104 47 124 0.0 0.0 0.00 0.00 0.00 94 1008.8
20260504100347 49 0 0.0 0.0 0.00 0.00 0.00 92 1008.4
20260504100103 48 124 0.0 0.0 0.00 0.00 0.00 92 1008.8
20260504090105 51 124 0.0 0.0 0.00 0.00 0.00 88 1008.7
20260504081547 53 0 0.0 0.0 0.00 0.00 0.00 87 1008.3
20260504081502 53 124 0.0 0.0 0.00 0.00 0.00 87 1008.6
20260504070347 56 0 0.0 0.0 0.00 0.00 0.00 81 1008.1
20260504070107 56 124 0.0 0.0 0.00 0.00 0.00 81 1008.5
20260504050002 63 124 0.0 0.0 0.00 0.00 0.00 69 1008.6
20260504045747 63 0 0.0 0.0 0.00 0.00 0.00 68 1008.2
20260504044605 64 124 0.0 0.0 0.00 0.00 0.00 67 1008.7
20260504043947 64 0 0.0 0.0 0.00 0.00 0.00 64 1008.3
20260504043047 66 0 0.0 0.0 0.00 0.00 0.00 62 1008.2
20260504042147 67 0 0.0 0.0 0.00 0.00 0.00 61 1008.2
20260504041600 67 124 0.0 0.0 0.00 0.00 0.00 59 1008.5
20260504041247 68 0 0.0 0.0 0.00 0.00 0.00 58 1008.1
20260504040347 69 0 0.0 0.0 0.00 0.00 0.00 57 1008.1
20260504040003 69 124 0.0 0.0 0.00 0.00 0.00 55 1008.3
20260504035447 70 0 0.0 0.0 0.00 0.00 0.00 53 1007.9
20260504034614 71 124 0.0 0.0 0.00 0.00 0.00 51 1008.2
20260504034547 72 0 0.0 0.0 0.00 0.00 0.00 51 1007.8
20260504033647 73 0 0.0 0.0 0.00 0.00 0.00 50 1007.6
20260504032747 75 0 0.0 1.0 0.00 0.00 0.00 47 1007.6
20260504031600 76 126 0.0 3.0 0.00 0.00 0.00 45 1007.9
20260504030948 78 113 1.0 3.0 0.00 0.00 0.00 43 1007.5
20260504030047 79 112 1.0 5.0 0.00 0.00 0.00 42 1007.4
20260504030001 78 110 0.0 5.0 0.00 0.00 0.00 42 1007.8
20260504025147 80 123 1.0 6.0 0.00 0.00 0.00 40 1007.5
20260504024601 80 142 0.0 5.0 0.00 0.00 0.00 41 1007.7
20260504024247 80 118 1.0 5.0 0.00 0.00 0.00 40 1007.4
20260504023347 81 127 0.0 4.0 0.00 0.00 0.00 41 1007.3
20260504022447 82 129 1.0 3.0 0.00 0.00 0.00 38 1007.2
20260504021601 83 120 0.0 5.0 0.00 0.00 0.00 36 1007.8
20260504021547 84 122 1.0 4.0 0.00 0.00 0.00 36 1007.3
20260504020647 85 115 1.0 7.0 0.00 0.00 0.00 35 1007.4
20260504020001 85 87 1.0 7.0 0.00 0.00 0.00 35 1007.8
20260504015748 86 115 0.0 5.0 0.00 0.00 0.00 36 1007.4
20260504014848 87 111 0.0 2.0 0.00 0.00 0.00 35 1007.5
20260504014619 87 116 0.0 2.0 0.00 0.00 0.00 34 1007.7
20260504013947 88 134 1.0 3.0 0.00 0.00 0.00 35 1007.5
20260504013048 88 120 0.0 4.0 0.00 0.00 0.00 34 1007.5
20260504012147 88 142 1.0 2.0 0.00 0.00 0.00 35 1007.5
20260504011606 87 115 0.0 4.0 0.00 0.00 0.00 36 1008.0
20260504011247 87 115 2.0 4.0 0.00 0.00 0.00 35 1007.6
20260504010001 87 103 4.0 7.0 0.00 0.00 0.00 34 1008.2
20260504005447 88 120 1.0 4.0 0.00 0.00 0.00 36 1007.8
20260504004603 88 184 0.0 3.0 0.00 0.00 0.00 36 1008.2
20260504004547 89 129 1.0 3.0 0.00 0.00 0.00 36 1007.8
20260504003648 88 119 1.0 3.0 0.00 0.00 0.00 37 1008.0
20260504003001 88 129 0.0 2.0 0.00 0.00 0.00 37 1008.4
20260504002747 88 145 1.0 4.0 0.00 0.00 0.00 38 1008.1
20260504001847 88 130 2.0 5.0 0.00 0.00 0.00 38 1008.1
20260504001620 87 131 0.0 5.0 0.00 0.00 0.00 39 1008.5
20260504000948 87 117 3.0 6.0 0.00 0.00 0.00 37 1008.1
20260504000048 87 119 2.0 7.0 0.00 0.00 0.00 34 1008.2
20260503235147 88 121 2.0 6.0 0.00 0.00 0.00 37 1008.2
20260503234600 88 113 1.0 5.0 0.00 0.00 0.00 35 1008.7
20260503234248 88 114 2.0 6.0 0.00 0.00 0.00 36 1008.3
20260503233001 87 118 1.0 7.0 0.00 0.00 0.00 37 1008.9
20260503232447 88 133 2.0 4.0 0.00 0.00 0.00 36 1008.6
20260503231600 87 117 1.0 6.0 0.00 0.00 0.00 37 1009.0
20260503231548 87 128 1.0 6.0 0.00 0.00 0.00 37 1008.6
20260503230648 87 130 3.0 6.0 0.00 0.00 0.00 38 1008.6
20260503230001 85 174 2.0 9.0 0.00 0.00 0.00 39 1009.2
20260503224601 85 139 4.0 8.0 0.00 0.00 0.00 39 1009.3